Flag for Russia Weather past 2 weeks in Kazan, Russia

Now
59 °F

Passing clouds.


Feels Like: 56 °F
Forecast: 44 / 57 °F
Wind: 15 mph from Northwest

Location: Kazan'

Current Time: Aug 30, 2015 at 3:30:42 AM

Latest Report: Aug 30, 2015 at 3:00 AM


Visibility: N/A

Pressure: 29.50 "Hg

Humidity: 88%

Dew point: 55 °F

Location of KazanLocation

Historic Weather in Kazan — Graph

°F

Kazan temperature yesterday

Maximum temperature yesterday: 70 °F (at 2:30 PM)
Minimum temperature yesterday: 57 °F (at 12:00 AM)
Average temperature yesterday: 62 °F

Past Weeks' High & Low Weather Summary

 TemperatureHumidityPressure
High75 °F (Aug 22, 1:00 PM)100% (Aug 18, 5:00 AM)30.21 "Hg (Aug 18, 5:00 AM)
Low39 °F (Aug 24, 4:00 AM)32% (Aug 23, 1:30 PM)29.50 "Hg (Aug 30, 1:00 AM)
Average59 °F73%29.95 "Hg
* Reported Aug 15 2:00 AM — Aug 30 2:30 AM, Kazan, Weather by CustomWeather, © 2015

Note: Actual official high and low records may vary slightly from our data, if they occured in-between our weather recording intervals... More about our weather records

Advertising

Kazan weather history for previous 24 hours

 ConditionsComfort  
Time TempWeatherWind HumidityBarometerVisibility
2:30 AM
Sun, Aug 30
59 °FPassing clouds.17 mph82%29.50 "HgN/A
2:00 AM59 °FPassing clouds.15 mph94%29.50 "HgN/A
1:30 AM61 °FPassing clouds.15 mph88%29.50 "HgN/A
1:00 AM61 °FPassing clouds.13 mph94%29.50 "HgN/A
12:30 AM61 °FSprinkles. Passing clouds.15 mph94%29.53 "HgN/A
12:00 AM61 °FSprinkles. Passing clouds.15 mph94%29.53 "Hg4 mi
11:30 PM
Sat, Aug 29
61 °FPassing clouds.13 mph94%29.53 "HgN/A
11:00 PM61 °FSprinkles. Passing clouds.13 mph94%29.53 "HgN/A
10:30 PM61 °FSprinkles. Passing clouds.8 mph94%29.56 "Hg6 mi
10:00 PM61 °FSprinkles. Passing clouds.8 mph94%29.56 "Hg6 mi
9:30 PM61 °FSprinkles. Passing clouds.13 mph94%29.59 "HgN/A
9:00 PM61 °FSprinkles. Passing clouds.8 mph94%29.62 "Hg3 mi
8:00 PM64 °FSprinkles. Passing clouds.8 mph83%29.65 "HgN/A
7:30 PM63 °FSprinkles. Partly sunny.8 mph88%29.65 "HgN/A
7:00 PM64 °FSprinkles. Partly sunny.6 mph83%29.68 "HgN/A
6:30 PM64 °FSprinkles. Partly sunny.8 mph83%29.68 "HgN/A
6:00 PM66 °FSprinkles. Partly sunny.10 mph78%29.68 "HgN/A
5:30 PM66 °FPartly sunny.10 mph78%29.71 "HgN/A
5:00 PM66 °FPartly sunny.10 mph78%29.74 "HgN/A
4:30 PM68 °FPartly sunny.13 mph73%29.74 "HgN/A
4:00 PM68 °FPartly sunny.6 mph73%29.77 "HgN/A
3:30 PM70 °FPartly sunny.8 mph64%29.77 "HgN/A
3:00 PM70 °FPartly sunny.8 mph64%29.80 "HgN/A
2:30 PM70 °FPartly sunny.3 mph64%29.80 "HgN/A
2:00 PM68 °FPartly sunny.8 mph69%29.83 "HgN/A
1:00 PM68 °FPartly sunny.3 mph69%29.83 "HgN/A
12:30 PM68 °FScattered clouds.6 mph73%29.86 "HgN/A
12:00 PM66 °FScattered clouds.8 mph73%29.86 "HgN/A
11:30 AM64 °FScattered clouds.10 mph83%29.89 "HgN/A
11:00 AM63 °FOvercast.10 mph83%29.89 "HgN/A
10:30 AM63 °FOvercast.10 mph88%29.89 "HgN/A
10:00 AM63 °FOvercast.13 mph88%29.89 "HgN/A
9:00 AM63 °FLight rain. Low clouds.13 mph88%29.89 "HgN/A
8:30 AM61 °FLight rain. Low clouds.10 mph94%29.89 "HgN/A
8:00 AM61 °FLight rain. Overcast.10 mph94%29.89 "Hg6 mi
7:30 AM61 °FLight rain. Partly sunny.8 mph94%29.89 "Hg4 mi
7:00 AM59 °FSprinkles. Partly sunny.8 mph94%29.89 "Hg3 mi
6:30 AM59 °FLight rain. Partly sunny.8 mph94%29.92 "Hg4 mi
6:00 AM59 °FLight rain. Partly sunny.8 mph94%29.92 "Hg4 mi
5:30 AM59 °FLight rain. Passing clouds.8 mph94%29.92 "Hg4 mi
5:00 AM59 °FLight rain. Passing clouds.6 mph94%29.92 "Hg5 mi
4:30 AM59 °FLight rain. Passing clouds.8 mph94%29.92 "Hg4 mi
4:00 AM59 °FLight rain. Passing clouds.8 mph94%29.92 "Hg3 mi
3:30 AM59 °FLight rain. Passing clouds.6 mph94%29.92 "Hg6 mi
3:00 AM59 °FLight rain. Overcast.3 mph94%29.92 "HgN/A
Weather by CustomWeather, © 2015

See weather overviewHow to use our weather pages